STARLINK-33799, 63447

Orbit data source: Space-Track

STARLINK-33799, 63447 is a payload satellite owned by SpaceX/Seattle (US) in LEO that was launched on Fri, 04 Apr 2025 UTC via an FALCON 9 launch vehicle from the Air Force Western Test Range (AFWTR). Payload-class satellites include a variety of spacecraft equipped with specific instruments for various scientific and technological missions. These include communications satellites like Starlink; space stations such as the ISS; scientific satellites like the Hubble; Earth observation satellites from companies like Planet Labs, Umbra, and HawkEye 360; GPS; miniature CubeSats for education and research; and military/defense satellites.

Loading next visibility...
Identifier
63447, 2025-069Q
Orbit
LEO
Country
Flag of USUS
Related business
Manufacturer
SpaceX/Seattle
Mission
Operational Commercial Communications
Bus & Motor
STARLINK V2MO, Unknown motor
Mass
575 kg wet, ~530 kg dry
Launch date (UTC)
2025-04-04 (1 year ago)
Launch vehicle
FALCON 9
Launch site
Air Force Western Test Range (AFWTR)
Object type
Payload
Rocket body
Debris
Shape & HBR
Box + 2 Pan, 17.7 m
Radar Cross Section
36.964 m², Large (>1 m²)

Expand to show TLE details & history
Last TLE update: 10 hours ago

TLE from 10 hours ago
0 STARLINK-33799
1 63447U 25069Q   26145.32210277  .00012605  00000-0  43691-3 0  9998
2 63447  53.1590 146.7965 0001189  88.9217 271.1920 15.30205649 65021
Epoch: 2026-05-25T07:43Z
TLE epoch observation values (Epoch: 2026-05-25T07:43:49.679Z)
Latitude
-0.00001°
Longitude
147.92793°
Altitude
476.081 km
Speed
7.629 km/s
True Right ascension
09h 47m 11s
True Declination
0° 00' 00"
Sunlit
Object was in daylight at epoch
Visualization orbit readout
Latitude
Unknown
Longitude
Unknown
Altitude
Unknown
Speed
Unknown
Apparent Right ascension
Unknown
Apparent Declination
Unknown
Sunlit
N/A
Visualization observer readout
Local Sidereal Time
03:05:10
Azimuth
Unknown
Elevation
Unknown
Doppler factor
Unknown
Orbital elements
Apogee altitude
476.27 km
Perigee altitude
474.64 km
Semi-major axis
6,853.592 km
Eccentricity
0.00012
Inclination
53.159°
RAAN
146.7965°
Arg. of periapsis
88.9217°
True anomaly
271.17838°
Mean anomaly
271.192°
Eccentric anomaly
271.18519°
Mean motion
3.8253 °/min
Orbital period
94.11 mins
BSTAR
0.00043691
Loading maneuver chart data...
Computing Atmospheric mass density...
Loading historical data...
Loading historical data...
Loading historical data...
Loading historical data...
Loading historical data...
Loading historical data...
Loading historical data...

Documentation

Showing up to 5 results
|